GLO2622 SBCY-SBSP

Flight info

Callsign GLO2622
Flight time 1h 46m
Altitude 37000
Route DIKUN DCT ASDOV DCT UTLOT
Aircraft B738/M-SDE2E3FGHIRWXY/LB1

Departure

Time 2026-04-21 23:20
Airport Várzea Grande–Marechal Rondon International Airport (SBCY)

Arrival

Time 2026-04-22 01:07
Airport Congonhas–Deputado Freitas Nobre Airport (SBSP)
Time Latitude Longitude Altitude Speed Heading
2026-04-21 22:52 -15.65152 -56.11926 616 ft 0 kts 242°
2026-04-21 23:06 -15.65145 -56.11913 614 ft 2 kts 242°
2026-04-21 23:06 -15.65137 -56.11899 601 ft 2 kts 242°
2026-04-21 23:06 -15.65130 -56.11884 623 ft 2 kts 242°
2026-04-21 23:07 -15.65122 -56.11869 623 ft 2 kts 242°
2026-04-21 23:07 -15.65115 -56.11854 625 ft 2 kts 242°
2026-04-21 23:07 -15.65107 -56.11839 624 ft 2 kts 243°
2026-04-21 23:07 -15.65100 -56.11825 621 ft 0 kts 243°
2026-04-21 23:10 -15.65105 -56.11835 623 ft 6 kts 243°
2026-04-21 23:11 -15.65119 -56.11863 626 ft 1 kts 243°
2026-04-21 23:11 -15.65123 -56.11872 623 ft 1 kts 243°
2026-04-21 23:11 -15.65127 -56.11880 623 ft 1 kts 243°
2026-04-21 23:11 -15.65129 -56.11884 616 ft 1 kts 243°
2026-04-21 23:12 -15.65131 -56.11887 616 ft 0 kts 243°
2026-04-21 23:12 -15.65132 -56.11890 616 ft 0 kts 243°
2026-04-21 23:12 -15.65134 -56.11893 616 ft 0 kts 244°
2026-04-21 23:13 -15.65135 -56.11896 616 ft 0 kts 244°
2026-04-21 23:14 -15.65130 -56.11906 621 ft 2 kts 316°
2026-04-21 23:14 -15.65123 -56.11907 621 ft 0 kts 353°
2026-04-21 23:14 -15.65121 -56.11907 621 ft 1 kts 355°
2026-04-21 23:15 -15.65102 -56.11900 618 ft 4 kts 30°
2026-04-21 23:15 -15.65083 -56.11877 621 ft 5 kts 59°
2026-04-21 23:15 -15.65068 -56.11845 623 ft 5 kts 62°
2026-04-21 23:15 -15.65041 -56.11817 616 ft 6 kts 19°
2026-04-21 23:16 -15.64996 -56.11829 619 ft 8 kts 335°
2026-04-21 23:16 -15.64932 -56.11862 617 ft 12 kts 333°
2026-04-21 23:16 -15.64848 -56.11906 622 ft 15 kts 333°
2026-04-21 23:16 -15.64750 -56.11958 625 ft 17 kts 333°
2026-04-21 23:17 -15.64643 -56.12014 621 ft 17 kts 332°
2026-04-21 23:17 -15.64537 -56.12070 630 ft 17 kts 333°
2026-04-21 23:17 -15.64445 -56.12137 624 ft 16 kts 308°
2026-04-21 23:17 -15.64391 -56.12168 627 ft 5 kts 46°
2026-04-21 23:18 -15.64407 -56.12138 624 ft 6 kts 154°
2026-04-21 23:18 -15.64430 -56.12126 627 ft 0 kts 152°
2026-04-21 23:20 -15.64500 -56.12089 622 ft 46 kts 153°
2026-04-21 23:20 -15.65045 -56.11801 628 ft 129 kts 153°
2026-04-21 23:20 -15.66017 -56.11268 897 ft 172 kts 149°
2026-04-21 23:20 -15.66992 -56.10652 2078 ft 151 kts 148°
2026-04-21 23:21 -15.67915 -56.10145 3016 ft 149 kts 153°
2026-04-21 23:21 -15.68928 -56.09641 3459 ft 178 kts 153°
2026-04-21 23:21 -15.70156 -56.09024 3787 ft 214 kts 153°
2026-04-21 23:21 -15.71584 -56.08293 4090 ft 243 kts 152°
2026-04-21 23:22 -15.73171 -56.07470 4521 ft 269 kts 152°
2026-04-21 23:22 -15.74850 -56.06590 5385 ft 276 kts 151°
2026-04-21 23:22 -15.76565 -56.05686 6468 ft 277 kts 150°
2026-04-21 23:22 -15.78293 -56.04770 7426 ft 281 kts 151°
2026-04-21 23:23 -15.80048 -56.03836 8369 ft 285 kts 151°
2026-04-21 23:23 -15.81825 -56.02888 9315 ft 289 kts 151°
2026-04-21 23:23 -15.83622 -56.01929 10213 ft 293 kts 152°
2026-04-21 23:23 -15.85495 -56.00928 10613 ft 317 kts 152°
2026-04-21 23:24 -15.87543 -55.99833 10846 ft 342 kts 152°
2026-04-21 23:24 -15.89690 -55.98687 11458 ft 351 kts 152°
2026-04-21 23:24 -15.91830 -55.97506 12229 ft 355 kts 148°
2026-04-21 23:24 -15.93718 -55.95855 13005 ft 357 kts 131°
2026-04-21 23:25 -15.95322 -55.93872 13794 ft 360 kts 128°
2026-04-21 23:25 -15.96881 -55.91810 14422 ft 365 kts 127°
2026-04-21 23:25 -15.98455 -55.89719 15058 ft 370 kts 128°
2026-04-21 23:25 -16.00066 -55.87613 15696 ft 374 kts 128°
2026-04-21 23:26 -16.01711 -55.85496 16320 ft 378 kts 128°
2026-04-21 23:26 -16.03385 -55.83369 16946 ft 382 kts 129°
2026-04-21 23:26 -16.05062 -55.81254 17539 ft 387 kts 129°
2026-04-21 23:26 -16.06787 -55.79087 18145 ft 391 kts 129°
2026-04-21 23:27 -16.08534 -55.76897 18658 ft 395 kts 129°
2026-04-21 23:27 -16.10293 -55.74693 19170 ft 398 kts 129°
2026-04-21 23:27 -16.12067 -55.72470 19700 ft 401 kts 129°
2026-04-21 23:27 -16.13852 -55.70232 20210 ft 404 kts 130°
2026-04-21 23:28 -16.15651 -55.67975 20695 ft 408 kts 130°
2026-04-21 23:28 -16.17469 -55.65695 21184 ft 411 kts 130°
2026-04-21 23:28 -16.19298 -55.63400 21676 ft 414 kts 130°
2026-04-21 23:28 -16.21115 -55.61118 22148 ft 417 kts 130°
2026-04-21 23:29 -16.22973 -55.58785 22615 ft 420 kts 130°
2026-04-21 23:29 -16.24841 -55.56438 23069 ft 423 kts 130°
2026-04-21 23:29 -16.26726 -55.54069 23508 ft 426 kts 131°
2026-04-21 23:29 -16.28623 -55.51683 23883 ft 429 kts 131°
2026-04-21 23:30 -16.30523 -55.49293 24264 ft 431 kts 131°
2026-04-21 23:30 -16.32441 -55.46879 24656 ft 433 kts 131°
2026-04-21 23:30 -16.34363 -55.44460 25023 ft 435 kts 131°
2026-04-21 23:30 -16.36295 -55.42027 25381 ft 437 kts 131°
2026-04-21 23:31 -16.38225 -55.39573 25725 ft 440 kts 129°
2026-04-21 23:31 -16.40013 -55.37023 26053 ft 443 kts 126°
2026-04-21 23:31 -16.41737 -55.34363 26402 ft 445 kts 124°
2026-04-21 23:31 -16.43443 -55.31659 26734 ft 447 kts 124°
2026-04-21 23:32 -16.45153 -55.28942 27058 ft 450 kts 124°
2026-04-21 23:32 -16.46879 -55.26217 27382 ft 452 kts 125°
2026-04-21 23:32 -16.48624 -55.23485 27697 ft 454 kts 125°
2026-04-21 23:32 -16.50385 -55.20744 28007 ft 456 kts 125°
2026-04-21 23:33 -16.52158 -55.17997 28302 ft 458 kts 125°
2026-04-21 23:33 -16.53943 -55.15236 28594 ft 460 kts 125°
2026-04-21 23:33 -16.55714 -55.12499 28895 ft 462 kts 125°
2026-04-21 23:33 -16.57514 -55.09716 29178 ft 464 kts 125°
2026-04-21 23:34 -16.59323 -55.06920 29449 ft 466 kts 125°
2026-04-21 23:34 -16.61143 -55.04104 29714 ft 469 kts 125°
2026-04-21 23:34 -16.62966 -55.01283 29974 ft 470 kts 125°
2026-04-21 23:34 -16.64798 -54.98445 30197 ft 472 kts 125°
2026-04-21 23:35 -16.66633 -54.95604 30434 ft 473 kts 125°
2026-04-21 23:35 -16.68471 -54.92754 30718 ft 473 kts 125°
2026-04-21 23:35 -16.70303 -54.89912 31088 ft 471 kts 125°
2026-04-21 23:35 -16.72098 -54.87127 31492 ft 468 kts 126°
2026-04-21 23:36 -16.73915 -54.84306 31884 ft 466 kts 126°
2026-04-21 23:36 -16.75721 -54.81501 32250 ft 465 kts 125°
2026-04-21 23:36 -16.77523 -54.78702 32624 ft 464 kts 126°
2026-04-21 23:36 -16.79316 -54.75916 33025 ft 463 kts 126°
2026-04-21 23:37 -16.81111 -54.73128 33435 ft 461 kts 126°
2026-04-21 23:37 -16.82892 -54.70358 33850 ft 459 kts 125°
2026-04-21 23:37 -16.84669 -54.67594 34230 ft 458 kts 125°
2026-04-21 23:37 -16.86442 -54.64835 34539 ft 457 kts 126°
2026-04-21 23:38 -16.88190 -54.62113 34807 ft 458 kts 126°
2026-04-21 23:38 -16.89964 -54.59351 35102 ft 457 kts 125°
2026-04-21 23:38 -16.91730 -54.56599 35431 ft 456 kts 125°
2026-04-21 23:38 -16.93494 -54.53850 35719 ft 456 kts 126°
2026-04-21 23:39 -16.95259 -54.51097 35977 ft 456 kts 126°
2026-04-21 23:39 -16.97023 -54.48346 36253 ft 455 kts 126°
2026-04-21 23:39 -16.98780 -54.45605 36543 ft 454 kts 126°
2026-04-21 23:39 -17.00536 -54.42862 36822 ft 454 kts 126°
2026-04-21 23:40 -17.02294 -54.40118 36975 ft 456 kts 126°
2026-04-21 23:40 -17.04044 -54.37384 36959 ft 459 kts 126°
2026-04-21 23:40 -17.07588 -54.31843 36964 ft 457 kts 126°
2026-04-21 23:41 -17.11091 -54.26361 36974 ft 451 kts 126°
2026-04-21 23:41 -17.14572 -54.20909 36979 ft 450 kts 126°
2026-04-21 23:42 -17.18043 -54.15471 36980 ft 449 kts 126°
2026-04-21 23:42 -17.21485 -54.10072 36982 ft 449 kts 126°
2026-04-21 23:43 -17.24947 -54.04637 36986 ft 449 kts 126°
2026-04-21 23:43 -17.28412 -53.99194 36989 ft 450 kts 126°
2026-04-21 23:44 -17.32031 -53.93846 36984 ft 450 kts 130°
2026-04-21 23:44 -17.36027 -53.88801 36990 ft 451 kts 132°
2026-04-21 23:45 -17.42068 -53.81280 36987 ft 453 kts 132°
2026-04-21 23:46 -17.46081 -53.76196 36989 ft 454 kts 131°
2026-04-21 23:46 -17.50087 -53.71087 36980 ft 454 kts 131°
2026-04-21 23:47 -17.54059 -53.66009 36982 ft 453 kts 131°
2026-04-21 23:47 -17.58047 -53.60903 36986 ft 452 kts 131°
2026-04-21 23:48 -17.62029 -53.55804 36989 ft 451 kts 130°
2026-04-21 23:48 -17.66000 -53.50716 36984 ft 451 kts 131°
2026-04-21 23:49 -17.69937 -53.45665 36994 ft 450 kts 131°
2026-04-21 23:49 -17.73890 -53.40593 36993 ft 449 kts 130°
2026-04-21 23:50 -17.77838 -53.35522 37001 ft 448 kts 130°
2026-04-21 23:50 -17.81782 -53.30453 37001 ft 448 kts 130°
2026-04-21 23:51 -17.85724 -53.25382 37005 ft 448 kts 130°
2026-04-21 23:51 -17.89637 -53.20343 37004 ft 448 kts 130°
2026-04-21 23:52 -17.93573 -53.15273 37016 ft 448 kts 130°
2026-04-21 23:52 -17.97513 -53.10192 37012 ft 449 kts 130°
2026-04-21 23:53 -18.01456 -53.05105 37015 ft 449 kts 130°
2026-04-21 23:53 -18.05372 -53.00048 37016 ft 449 kts 130°
2026-04-21 23:54 -18.09318 -52.94948 37018 ft 449 kts 130°
2026-04-21 23:54 -18.13260 -52.89849 37019 ft 450 kts 130°
2026-04-21 23:55 -18.17203 -52.84746 37017 ft 450 kts 131°
2026-04-21 23:55 -18.21145 -52.79640 37016 ft 450 kts 131°
2026-04-21 23:56 -18.25060 -52.74564 37017 ft 450 kts 131°
2026-04-21 23:56 -18.28998 -52.69454 37015 ft 450 kts 131°
2026-04-21 23:57 -18.32937 -52.64339 37018 ft 449 kts 131°
2026-04-21 23:57 -18.36870 -52.59228 37016 ft 449 kts 131°
2026-04-21 23:58 -18.40773 -52.54151 37018 ft 449 kts 131°
2026-04-21 23:58 -18.44702 -52.49037 37015 ft 449 kts 131°
2026-04-21 23:59 -18.48628 -52.43925 37016 ft 449 kts 131°
2026-04-21 23:59 -18.52549 -52.38812 37016 ft 448 kts 131°
2026-04-22 00:00 -18.56442 -52.33732 37016 ft 448 kts 131°
2026-04-22 00:00 -18.60356 -52.28621 37015 ft 448 kts 131°
2026-04-22 00:01 -18.64266 -52.23510 37018 ft 448 kts 131°
2026-04-22 00:01 -18.68177 -52.18395 37016 ft 448 kts 130°
2026-04-22 00:02 -18.72088 -52.13274 37014 ft 448 kts 130°
2026-04-22 00:02 -18.75973 -52.08184 37010 ft 448 kts 130°
2026-04-22 00:03 -18.79885 -52.03055 37013 ft 448 kts 130°
2026-04-22 00:03 -18.83796 -51.97922 37012 ft 448 kts 130°
2026-04-22 00:04 -18.87677 -51.92824 37016 ft 448 kts 130°
2026-04-22 00:04 -18.91579 -51.87696 37010 ft 448 kts 130°
2026-04-22 00:05 -18.95485 -51.82557 37007 ft 448 kts 130°
2026-04-22 00:05 -18.99383 -51.77424 37015 ft 447 kts 131°
2026-04-22 00:06 -19.03269 -51.72303 37008 ft 447 kts 131°
2026-04-22 00:06 -19.07130 -51.67212 37001 ft 446 kts 131°
2026-04-22 00:07 -19.11000 -51.62103 37016 ft 445 kts 131°
2026-04-22 00:07 -19.14867 -51.56994 37009 ft 444 kts 131°
2026-04-22 00:08 -19.18723 -51.51896 37008 ft 444 kts 131°
2026-04-22 00:08 -19.22550 -51.46832 37004 ft 443 kts 131°
2026-04-22 00:09 -19.26396 -51.41739 37007 ft 443 kts 131°
2026-04-22 00:09 -19.30239 -51.36646 37003 ft 443 kts 131°
2026-04-22 00:10 -19.34079 -51.31551 37008 ft 442 kts 131°
2026-04-22 00:10 -19.37891 -51.26491 37004 ft 442 kts 131°
2026-04-22 00:11 -19.41726 -51.21394 37005 ft 442 kts 131°
2026-04-22 00:11 -19.45562 -51.16293 37006 ft 443 kts 131°
2026-04-22 00:12 -19.49396 -51.11189 37002 ft 443 kts 131°
2026-04-22 00:12 -19.53239 -51.06071 37006 ft 444 kts 131°
2026-04-22 00:13 -19.57059 -51.00977 37007 ft 444 kts 131°
2026-04-22 00:13 -19.60900 -50.95851 37006 ft 444 kts 131°
2026-04-22 00:14 -19.64747 -50.90713 37008 ft 445 kts 131°
2026-04-22 00:14 -19.68601 -50.85562 37011 ft 445 kts 131°
2026-04-22 00:15 -19.72426 -50.80443 37009 ft 445 kts 131°
2026-04-22 00:15 -19.76272 -50.75294 37008 ft 446 kts 131°
2026-04-22 00:16 -19.80122 -50.70135 37007 ft 446 kts 131°
2026-04-22 00:16 -19.83968 -50.64975 37017 ft 445 kts 131°
2026-04-22 00:17 -19.87815 -50.59810 37011 ft 445 kts 131°
2026-04-22 00:17 -19.91629 -50.54685 37015 ft 445 kts 131°
2026-04-22 00:18 -19.95465 -50.49526 37016 ft 445 kts 131°
2026-04-22 00:18 -19.99300 -50.44363 37021 ft 445 kts 131°
2026-04-22 00:19 -20.03134 -50.39196 37018 ft 445 kts 131°
2026-04-22 00:19 -20.06938 -50.34067 37019 ft 445 kts 131°
2026-04-22 00:20 -20.10771 -50.28905 37027 ft 444 kts 133°
2026-04-22 00:20 -20.15134 -50.24324 37027 ft 440 kts 140°
2026-04-22 00:21 -20.19645 -50.19905 37033 ft 441 kts 140°
2026-04-22 00:21 -20.24115 -50.15505 37029 ft 441 kts 140°
2026-04-22 00:22 -20.28610 -50.11057 37024 ft 441 kts 140°
2026-04-22 00:22 -20.33092 -50.06608 37031 ft 441 kts 140°
2026-04-22 00:23 -20.37575 -50.02152 37034 ft 441 kts 140°
2026-04-22 00:23 -20.42059 -49.97692 37034 ft 441 kts 140°
2026-04-22 00:24 -20.46509 -49.93262 37038 ft 440 kts 140°
2026-04-22 00:24 -20.50982 -49.88805 37033 ft 440 kts 140°
2026-04-22 00:25 -20.55453 -49.84348 37036 ft 440 kts 140°
2026-04-22 00:25 -20.59928 -49.79881 37038 ft 440 kts 140°
2026-04-22 00:26 -20.64393 -49.75422 37036 ft 439 kts 140°
2026-04-22 00:26 -20.68853 -49.70964 37046 ft 439 kts 140°
2026-04-22 00:27 -20.73311 -49.66503 37052 ft 439 kts 141°
2026-04-22 00:27 -20.77734 -49.62074 37058 ft 439 kts 141°
2026-04-22 00:28 -20.82185 -49.57614 37070 ft 438 kts 141°
2026-04-22 00:28 -20.86634 -49.53152 37071 ft 438 kts 141°
2026-04-22 00:29 -20.91078 -49.48691 37073 ft 438 kts 141°
2026-04-22 00:29 -20.95486 -49.44262 37070 ft 438 kts 141°
2026-04-22 00:30 -20.99922 -49.39801 37073 ft 438 kts 141°
2026-04-22 00:30 -21.04369 -49.35326 37062 ft 438 kts 141°
2026-04-22 00:31 -21.08811 -49.30851 37060 ft 439 kts 141°
2026-04-22 00:31 -21.13226 -49.26400 37044 ft 439 kts 141°
2026-04-22 00:32 -21.17667 -49.21919 37048 ft 439 kts 141°
2026-04-22 00:32 -21.22105 -49.17437 37052 ft 439 kts 141°
2026-04-22 00:33 -21.25798 -49.13704 37052 ft 439 kts 141°
2026-04-22 00:33 -21.30243 -49.09208 37044 ft 439 kts 141°
2026-04-22 00:34 -21.35401 -49.03985 37056 ft 439 kts 141°
2026-04-22 00:34 -21.39844 -48.99483 37052 ft 439 kts 141°
2026-04-22 00:35 -21.43536 -48.95738 37042 ft 439 kts 141°
2026-04-22 00:35 -21.47976 -48.91231 37059 ft 439 kts 141°
2026-04-22 00:36 -21.53141 -48.85983 37052 ft 440 kts 141°
2026-04-22 00:36 -21.56863 -48.82199 37063 ft 440 kts 141°
2026-04-22 00:37 -21.61275 -48.77708 37053 ft 440 kts 141°
2026-04-22 00:37 -21.65724 -48.73176 37055 ft 440 kts 141°
2026-04-22 00:38 -21.70169 -48.68644 37057 ft 441 kts 141°
2026-04-22 00:38 -21.74619 -48.64103 37053 ft 441 kts 141°
2026-04-22 00:39 -21.79030 -48.59596 37061 ft 441 kts 141°
2026-04-22 00:39 -21.83503 -48.55024 37061 ft 441 kts 141°
2026-04-22 00:40 -21.87924 -48.50501 37064 ft 441 kts 141°
2026-04-22 00:40 -21.92362 -48.45955 37061 ft 441 kts 141°
2026-04-22 00:41 -21.96802 -48.41403 37062 ft 441 kts 141°
2026-04-22 00:41 -22.01224 -48.36867 37069 ft 441 kts 141°
2026-04-22 00:42 -22.05669 -48.32302 37072 ft 441 kts 141°
2026-04-22 00:42 -22.10104 -48.27742 37074 ft 441 kts 141°
2026-04-22 00:43 -22.14542 -48.23177 37077 ft 441 kts 141°
2026-04-22 00:43 -22.18994 -48.18592 37071 ft 442 kts 141°
2026-04-22 00:44 -22.23411 -48.14039 37081 ft 442 kts 141°
2026-04-22 00:44 -22.27851 -48.09457 37087 ft 442 kts 141°
2026-04-22 00:45 -22.32296 -48.04867 36973 ft 444 kts 141°
2026-04-22 00:45 -22.34552 -48.02538 36371 ft 449 kts 141°
2026-04-22 00:45 -22.36769 -48.00245 35754 ft 448 kts 141°
2026-04-22 00:45 -22.39016 -47.97919 35034 ft 449 kts 141°
2026-04-22 00:46 -22.41288 -47.95568 34254 ft 452 kts 141°
2026-04-22 00:46 -22.43546 -47.93228 33682 ft 449 kts 141°
2026-04-22 00:46 -22.45795 -47.90898 33055 ft 446 kts 141°
2026-04-22 00:46 -22.48004 -47.88552 32509 ft 444 kts 138°
2026-04-22 00:47 -22.50030 -47.86043 31974 ft 443 kts 134°
2026-04-22 00:47 -22.51952 -47.83442 31434 ft 441 kts 133°
2026-04-22 00:47 -22.53769 -47.80928 30924 ft 439 kts 133°
2026-04-22 00:47 -22.55653 -47.78334 30392 ft 438 kts 133°
2026-04-22 00:48 -22.57544 -47.75764 29814 ft 436 kts 133°
2026-04-22 00:48 -22.59436 -47.73220 29244 ft 432 kts 133°
2026-04-22 00:48 -22.61299 -47.70731 28688 ft 429 kts 133°
2026-04-22 00:48 -22.63171 -47.68236 28140 ft 426 kts 133°
2026-04-22 00:49 -22.65025 -47.65765 27603 ft 423 kts 133°
2026-04-22 00:49 -22.66245 -47.64139 27248 ft 422 kts 133°
2026-04-22 00:49 -22.68089 -47.61678 26715 ft 420 kts 132°
2026-04-22 00:49 -22.69926 -47.59225 26171 ft 418 kts 132°
2026-04-22 00:50 -22.71752 -47.56785 25621 ft 416 kts 131°
2026-04-22 00:50 -22.73543 -47.54391 25075 ft 414 kts 131°
2026-04-22 00:50 -22.75351 -47.51973 24560 ft 412 kts 131°
2026-04-22 00:50 -22.77148 -47.49567 24027 ft 410 kts 131°
2026-04-22 00:51 -22.78936 -47.47173 23468 ft 408 kts 131°
2026-04-22 00:51 -22.80714 -47.44791 22894 ft 405 kts 130°
2026-04-22 00:51 -22.82472 -47.42434 22354 ft 400 kts 130°
2026-04-22 00:51 -22.84211 -47.40101 21847 ft 396 kts 130°
2026-04-22 00:52 -22.85934 -47.37788 21351 ft 392 kts 130°
2026-04-22 00:52 -22.87640 -47.35499 20856 ft 388 kts 130°
2026-04-22 00:52 -22.89304 -47.33264 20373 ft 385 kts 130°
2026-04-22 00:52 -22.90978 -47.31015 19889 ft 381 kts 130°
2026-04-22 00:53 -22.92637 -47.28784 19393 ft 379 kts 130°
2026-04-22 00:53 -22.94284 -47.26570 18908 ft 376 kts 130°
2026-04-22 00:53 -22.95919 -47.24370 18422 ft 373 kts 130°
2026-04-22 00:53 -22.97543 -47.22185 17888 ft 370 kts 130°
2026-04-22 00:54 -22.99149 -47.20022 17397 ft 366 kts 130°
2026-04-22 00:54 -23.00738 -47.17882 16920 ft 362 kts 130°
2026-04-22 00:54 -23.02324 -47.16003 16470 ft 356 kts 140°
2026-04-22 00:54 -23.04473 -47.14753 16011 ft 349 kts 167°
2026-04-22 00:55 -23.06848 -47.14370 15633 ft 342 kts 173°
2026-04-22 00:55 -23.09198 -47.14009 15186 ft 339 kts 171°
2026-04-22 00:55 -23.13801 -47.13092 14330 ft 333 kts 168°
2026-04-22 00:56 -23.16064 -47.12596 13901 ft 330 kts 168°
2026-04-22 00:56 -23.18304 -47.12098 13432 ft 328 kts 168°
2026-04-22 00:56 -23.20534 -47.11605 12991 ft 324 kts 168°
2026-04-22 00:56 -23.22701 -47.11126 12578 ft 320 kts 168°
2026-04-22 00:57 -23.24875 -47.10647 12169 ft 317 kts 168°
2026-04-22 00:57 -23.27023 -47.10175 11792 ft 313 kts 168°
2026-04-22 00:57 -23.29141 -47.09711 11425 ft 309 kts 168°
2026-04-22 00:57 -23.31243 -47.09251 11065 ft 308 kts 168°
2026-04-22 00:58 -23.33341 -47.08792 10708 ft 306 kts 168°
2026-04-22 00:58 -23.35399 -47.08341 10340 ft 296 kts 168°
2026-04-22 00:58 -23.37381 -47.07907 10045 ft 284 kts 168°
2026-04-22 00:58 -23.39271 -47.07493 9633 ft 277 kts 168°
2026-04-22 00:59 -23.41074 -47.07019 9320 ft 266 kts 159°
2026-04-22 00:59 -23.42612 -47.05946 9032 ft 267 kts 130°
2026-04-22 00:59 -23.43377 -47.04118 8825 ft 270 kts 102°
2026-04-22 00:59 -23.43730 -47.02099 8580 ft 274 kts 105°
2026-04-22 01:00 -23.44228 -47.00079 8325 ft 277 kts 107°
2026-04-22 01:00 -23.44762 -46.98072 8057 ft 274 kts 107°
2026-04-22 01:00 -23.45290 -46.96092 7800 ft 270 kts 107°
2026-04-22 01:00 -23.45807 -46.94143 7549 ft 267 kts 107°
2026-04-22 01:01 -23.46321 -46.92186 7198 ft 271 kts 107°
2026-04-22 01:01 -23.46836 -46.90213 6921 ft 271 kts 107°
2026-04-22 01:01 -23.47342 -46.88271 6672 ft 270 kts 107°
2026-04-22 01:01 -23.47847 -46.86326 6407 ft 262 kts 107°
2026-04-22 01:02 -23.48334 -46.84449 6146 ft 252 kts 107°
2026-04-22 01:02 -23.48799 -46.82657 5904 ft 241 kts 107°
2026-04-22 01:02 -23.49244 -46.80937 5690 ft 231 kts 106°
2026-04-22 01:02 -23.49668 -46.79299 5511 ft 217 kts 106°
2026-04-22 01:03 -23.50064 -46.77768 5298 ft 204 kts 106°
2026-04-22 01:03 -23.50439 -46.76322 5112 ft 192 kts 106°
2026-04-22 01:03 -23.50787 -46.74976 4950 ft 183 kts 106°
2026-04-22 01:03 -23.51312 -46.73771 4737 ft 170 kts 131°
2026-04-22 01:04 -23.52185 -46.72964 4638 ft 163 kts 143°
2026-04-22 01:04 -23.53112 -46.72295 4511 ft 152 kts 146°
2026-04-22 01:04 -23.53983 -46.71689 4322 ft 145 kts 146°
2026-04-22 01:04 -23.54820 -46.71107 4192 ft 144 kts 146°
2026-04-22 01:05 -23.55673 -46.70513 4117 ft 146 kts 146°
2026-04-22 01:05 -23.56532 -46.69914 3949 ft 141 kts 146°
2026-04-22 01:05 -23.57342 -46.69352 3744 ft 134 kts 147°
2026-04-22 01:05 -23.58105 -46.68816 3475 ft 132 kts 145°
2026-04-22 01:06 -23.58859 -46.68279 3422 ft 129 kts 145°
2026-04-22 01:06 -23.59617 -46.67738 3344 ft 129 kts 146°
2026-04-22 01:06 -23.60373 -46.67216 3117 ft 130 kts 147°
2026-04-22 01:06 -23.61144 -46.66689 2915 ft 130 kts 146°
2026-04-22 01:07 -23.61903 -46.66167 2691 ft 127 kts 147°
2026-04-22 01:07 -23.62590 -46.65692 2613 ft 102 kts 148°
2026-04-22 01:07 -23.63025 -46.65397 2624 ft 45 kts 148°
2026-04-22 01:07 -23.63158 -46.65379 2628 ft 15 kts 190°
2026-04-22 01:08 -23.63195 -46.65387 2629 ft 0 kts 190°
2026-04-22 01:10 -23.63205 -46.65403 2629 ft 4 kts 274°
2026-04-22 01:10 -23.63183 -46.65431 2629 ft 6 kts 323°
2026-04-22 01:10 -23.63146 -46.65458 2627 ft 7 kts 327°
2026-04-22 01:10 -23.63106 -46.65486 2626 ft 7 kts 327°
2026-04-22 01:11 -23.63063 -46.65513 2625 ft 8 kts 341°
2026-04-22 01:11 -23.62989 -46.65530 2622 ft 13 kts 335°
2026-04-22 01:11 -23.62914 -46.65582 2620 ft 13 kts 327°
2026-04-22 01:11 -23.62892 -46.65646 2619 ft 6 kts 294°
2026-04-22 01:12 -23.62850 -46.65679 2618 ft 10 kts 329°
2026-04-22 01:12 -23.62776 -46.65730 2616 ft 14 kts 328°
2026-04-22 01:12 -23.62698 -46.65781 2614 ft 12 kts 330°
2026-04-22 01:12 -23.62631 -46.65826 2612 ft 10 kts 328°
2026-04-22 01:13 -23.62589 -46.65871 2610 ft 8 kts 288°
2026-04-22 01:13 -23.62596 -46.65899 2610 ft 0 kts 246°